Карточка аэропорта UATG

Внимание!
Информация на этой странице в стадии наполнения.
Если вы не увидели какой-то информации, или заметили неточность - пожалуйста сообщите нам!
Спасибо!
Команда RU-STAFF
Название аэропортаАтырау
Название аэропорта (англ.)Atyrau
Превышение-72 ft. (-21.9 m.)
Координаты47°7.332', 51°49.764'
Высота перехода10000ft
Эшелон переходаFL120, QNH<733:FL130
Коды ответчика3450-3457, 3560-3567
Зона ОрВДАктобе РПИ (UATT)
Данные METARUATG 271200Z 35005MPS 300V020 CAVOK 27/M01 Q1019 NOSIG RMK QFE766/1022
Проноз погоды (TAF)UATG 271100Z 2712/2812 VRB02MPS CAVOK TX26/2810Z TN15/2802Z TEMPO 2712/2716 22006MPS BECMG 2717/2719 04007MPS TEMPO 2809/2812 VRB02MPS
NOTAMshow/hide NOTAM
AWOS   TABLE

Информация о ВПП

ВПП Длина ВПП (м.) Покрытие Курс ВПП Частота ILS
143000Асфальтобетон149109.9
323000Асфальтобетон329108.3

Диспетчерские позиции

Позывной Наименование органа УВД Частота
UATG_APPАтырау Подход123.7
UATG_TWRАтырау Вышка118.1



Спутниковое изображение